This is the latest recevied weather packets stored in our database for station/object S54Z-11. If no packets are shown the sender has not sent any weather packets the latest 10 day(s).
| Time | Temp. | Humidity | Pressure | Rain* | Wind** | Luminosity | Snow |
|---|---|---|---|---|---|---|---|
| 1777650876 | 15.56° C | 36% | 1027.2 hPa | - | - | - | - |
| 1777649976 | 15.56° C | 38% | 1027.2 hPa | - | - | - | - |
| 1777649076 | 16.11° C | 36% | 1027.2 hPa | - | - | - | - |
| 1777648176 | 16.11° C | 36% | 1027.4 hPa | - | - | - | - |
| 1777647276 | 16.11° C | 37% | 1027.5 hPa | - | - | - | - |
| 1777646376 | 15.56° C | 37% | 1027.6 hPa | - | - | - | - |
| 1777645476 | 16.11° C | 37% | 1027.6 hPa | - | - | - | - |
| 1777644577 | 15.56° C | 37% | 1027.6 hPa | - | - | - | - |
| 1777643675 | 15.56° C | 36% | 1027.8 hPa | - | - | - | - |
| 1777642775 | 17.22° C | 36% | 1027.9 hPa | - | - | - | - |
| 1777641875 | 16.67° C | 34% | 1028.1 hPa | - | - | - | - |
| 1777640975 | 16.67° C | 35% | 1028.2 hPa | - | - | - | - |
| 1777640075 | 15.56° C | 35% | 1028.3 hPa | - | - | - | - |
| 1777639175 | 17.78° C | 33% | 1028.3 hPa | - | - | - | - |
| 1777638275 | 16.67° C | 33% | 1028.5 hPa | - | - | - | - |
| 1777637375 | 16.67° C | 32% | 1028.7 hPa | - | - | - | - |
| 1777636475 | 16.11° C | 33% | 1028.8 hPa | - | - | - | - |
| 1777634681 | 16.67° C | 31% | 1029 hPa | - | - | - | - |
| 1777633773 | 16.67° C | 31% | 1029.1 hPa | - | - | - | - |
| 1777632873 | 15° C | 33% | 1029.3 hPa | - | - | - | - |
| 1777631973 | 15.56° C | 34% | 1029.5 hPa | - | - | - | - |
| 1777631073 | 15.56° C | 32% | 1029.7 hPa | - | - | - | - |
| 1777630173 | 16.11° C | 34% | 1029.9 hPa | - | - | - | - |
| 1777629274 | 15° C | 32% | 1029.8 hPa | - | - | - | - |
| 1777628373 | 15° C | 34% | 1030 hPa | - | - | - | - |
* Rain since midnight (hover to see other rain measurements)
** Current wind speed in m/s (hover to see current wind gust speed)